Location: Auckland
(36.8670°S, 174.7670°E)
Time: 19:23:53
(UTC+12:00)

A-11 Canister half - Pass Details

Date: 28 July 2019
Orbit: 1526 x 1682 km, 47.3° (Epoch: 24 August)

Event Time Altitude Azimuth Distance (km) Brightness Sun altitude
Rises 06:52:25 0° 307° (NW) 4,671 11.2 -6.6°
Reaches altitude 10° 06:55:26 10° 307° (NW) 3,693 10.7 -6.0°
Maximum altitude 07:04:46 88° 35° (NE) 1,552 9.1 -4.3°
Drops below altitude 10° 07:14:22 10° 123° (ESE) 3,784 11.6 -2.5°
Sets 07:17:30 0° 122° (ESE) 4,790 12.1 -1.9°
